Other Surface Observations
Issued by NWS Tucson, AZ

Home | Current Version | Previous Version | Text Only | Print | Product List | Glossary On
Versions: 1 2 3 4 5 6 7 8 9 10 11 12 13 14 15 16 17 18 19 20 21 22 23 24 25 26 27 28 29 30 31 32 33 34 35 36 37 38 39 40 41 42 43 44 45 46 47 48 49 50
000
SXUS55 KTWC 182315
OSOTWC

WEATHER ROUNDUP FOR SOUTHEAST ARIZONA
NATIONAL WEATHER SERVICE TUCSON AZ
415 PM MST FRI AUG 18 2017

AZZ504>506-514-190015-
LOCATION       SKY/WX    TMP DP  RH WIND       PRES   REMARKS
TUCSON         SUNNY     97  43  15 NW3       29.97
DAVIS-MONTHAN  MOSUNNY  102  35  10 NW3       29.97F
CHILDRENS PARK N/A      N/A N/A  12 W3                PIMA CO DEQ
ALVERNON/22ND  N/A       99 N/A N/A NW3               PIMA CO DEQ
CHERRY/GLENN   N/A      N/A N/A N/A N/A               PIMA CO DEQ
TANGERINE      N/A       99 N/A N/A W7                PIMA CO DEQ
CONTL RANCH    N/A      100  36  11 NW4               PIMA CO DEQ
GRANT/1ST      N/A       99  35  11 SW7               PIMA CO DEQ
CRAYCROFT/22ND N/A       99  37  12 N/A               PIMA CO DEQ
GOLFLINKS/KOLB N/A      N/A N/A N/A N/A               PIMA CO DEQ
AJO/12TH       N/A       99  37  12 SW4               PIMA CO DEQ
FAIRGROUNDS    N/A       97 N/A N/A NW5               PIMA CO DEQ
SAGUARO        N/A      101  41  13 SW3G12            *SABINO CYN
SAN CARLOS     N/A      104  34   9 E3G10             *SAN CARLOS
GREEN VALLEY   N/A       98  37  12 NW4               PIMA CO DEQ
HORSE CAMP CYN N/A       94  36  13 W10G21            *ARAVAIPA CYN
RINCON MTNS    N/A       76  40  27 SW3G10            *NR MANNING CAMP
$$

AZZ509>511-190015-
LOCATION       SKY/WX    TMP DP  RH WIND       PRES   REMARKS
SAFFORD        SUNNY     99  39  12 W10G17    29.95F
STRAY HORSE    N/A       77  39  26 NE2G10            *
TRAIL CABIN    N/A       87  34  15 N3G11             *N OF GRANVILLE
BLACK HILLS    NOT AVBL
DRY LAKE       N/A       83  38  20 SW6G14            *NATANES MTNS
NOON CREEK     N/A       90  34  14 N3G12             *PINALENO MTNS
COLUMBINE      N/A       72  41  32 N3G10             *PINALENO MTNS
GUTHRIE        N/A       87  40  19 W3G11             *SW OF GUTHRIE
$$

AZZ502-503-513-190015-
LOCATION       SKY/WX    TMP DP  RH WIND       PRES   REMARKS
NOGALES        MOSUNNY   93  41  16 W8        30.06F
SELLS          N/A      102  35  10 NE8G16            *
SASABE         N/A       97  40  14 NW4G11            *ALTAR VLY
HOPKINS        N/A       84  42  23 W4G11             *SANTA RITA MTNS
CARR CYN       N/A       89  44  21 NE3               *W OF HEREFORD
$$

AZZ507-508-512-190015-
LOCATION       SKY/WX    TMP DP  RH WIND       PRES   REMARKS
SIERRA VISTA   MOSUNNY   92  38  15 NW3       30.12F
DOUGLAS        MOSUNNY   92  45  19 W9        30.06F
EMPIRE MTNS    NOT AVBL
MULESHOE RANCH N/A       92  42  18 NW5G13            *PRESERVE
HEADQUARTERS   N/A       91  40  17 W7G12             *CHIRICAHUA MTNS
$$

.............................NOTES.............................
THIS IS AN AUTOMATED COLLECTIVE WITH MINIMAL QUALITY CONTROL.
PIMA CO DEQ SITES HAVE NONSTANDARD WIND SENSOR HEIGHTS.
PIMA CO DEQ SITES DO NOT REPORT WIND GUSTS.
* INDICATES WIND SENSORS LOCATED AT 20 FEET INSTEAD OF 33 FEET.
..............................KEY..............................
SKY/WX - SKY CONDITION/WEATHER
TMP    - TEMPERATURE IN FAHRENHEIT
DP     - DEWPOINT IN FAHRENHEIT
RH     - RELATIVE HUMIDITY IN PERCENT
WIND   - DIRECTION AND SPEED IN MILES PER HOUR (MPH)
VRB    - VARIABLE WIND DIRECTION
PRES   - MEAN SEA LEVEL PRESSURE IN INCHES OF MERCURY
         F - FALLING PRESSURE   R - RISING PRESSURE
         S - STEADY PRESSURE
VSB    - VISIBILITY IN MILES
HX     - HEAT INDEX IN FAHRENHEIT
WCI    - WIND CHILL INDEX IN FAHRENHEIT
N/A    - NOT AVAILABLE
AFB    - AIR FORCE BASE
         DAVIS-MONTHAN IS DAVIS-MONTHAN AIR FORCE BASE
CYN    - CANYON
MTNS   - MOUNTAINS
NCA    - NATIONAL CONSERVATION AREA
NR     - NEAR
VLY    - VALLEY
CONTL  - CONTINENTAL
PIMA CO DEQ - PIMA COUNTY DEPT OF ENVIRONMENTAL QUALITY



USA.gov is the U.S. government's official web portal to all federal, state and local government web resources and services.